Dr. Bill's Marine Weather

Coastal Marine Forecast

       Alabama   Florida   Louisiana   Mississippi

Printer Friendly AL  FL  LA  MS

Data Buoys:   Western Gulf of Mexico    Eastern Gulf of Mexico
**********************************************************************
  Alabama
1200 PM CDT FRI OCT 20 2017

ALZ051>064-201800-
SOUTHWEST ALABAMA
  
CITY           SKY/WX    TMP DP  RH WIND       PRES   REMARKS
MOBILE         PTSUNNY   78  61  55 E13       30.19S                  
BROOKLEY FIELD PTSUNNY   78  65  63 E9        30.19F                  
EVERGREEN      SUNNY     79  60  52 NE8       30.21F                  
**********************************************************************
  Florida
100 PM EDT FRI OCT 20 2017

FLZ001>010-012>015-112-114-115-201800-
PANHANDLE FLORIDA
  
CITY           SKY/WX    TMP DP  RH WIND       PRES   REMARKS
PENSACOLA      CLOUDY    82  59  45 E7        30.17F                  
PENSACOLA NAS  CLOUDY    80  61  52 E12       30.16F                  
MILTON NAS     MOSUNNY   80  60  50 E12       30.18                   
CRESTVIEW      SUNNY     82  59  45 NE6       30.21F                  
DUKE FIELD     PTSUNNY   82  54  37 E7        30.18F                  
VALPARAISO     PTSUNNY   81  51  34 NE9       30.18F                  
MARY ESTHER    PTSUNNY   82  55  39 E13       30.16                   
PANAMA CITY    PTSUNNY   80  60  50 VRB6      30.17F                  
TYNDALL AFB    CLOUDY    81  66  61 E9        30.17F                  
APALACHICOLA   CLOUDY    78  68  71 E12       30.17F                  

STATION/POSITION SKY/WX   TEMP    WIND        PRES    WAVE   SWELL
                          AIR SEA DIR/SP/G            HT/PER HT/PER
                          (F)     (DEG/KT/KT) (MB)    (FT/S) (FT/S)
30.1N   87.6W              76 79   80/ 17/ 23 1020.8F   5/ 6
29.2N   88.2W              80 82   80/ 19/ 23 1019.9F   6/ 6
28.8N   86.0W              79 81   90/ 16/ 19 1019.6F   5/ 7
PANAMA CITY BEAC           75 78   50/  9/ 14 1022.8
TOWER C                    75      80/ 18/ 19 1021.5F
28.5N   84.5W              78 81   80/ 17/ 19 1019.6F   4/ 6

**********************************************************************
  Louisiana
1200 PM CDT FRI OCT 20 2017

LAZ040-048-061>063-065-066-069-201800-
SOUTHEAST LOUISIANA
  
CITY           SKY/WX    TMP DP  RH WIND       PRES   REMARKS
N.O. INTL ARPT CLOUDY    80  71  74 NE8       30.13F                  
N.O. LAKEFRONT MOSUNNY   78  70  76 E13       30.14F                  
N.O. DOWNTOWN* FAIR      77  69  76 VRB5G17   30.14F                  
RESERVE*       FAIR      80  68  67 E10G17    30.13F                  
SLIDELL        CLOUDY    79  67  66 E7        30.14F                  
BATON ROUGE    PTSUNNY   77  64  64 E10       30.14F                  
BOOTHVILLE     CLOUDY    83  73  72 E9        30.12F                  
BELLE CHASSE   PTSUNNY   78  68  71 E10       30.12R                  
BOGALUSA*      FAIR      81  65  58 E8        30.18F                  
GALLIANO*      MOSUNNY   80  70  70 NE6       30.12F                  
NEW ROADS*     FAIR      77  63  60 SE9       30.13F                  
GONZALES*      FAIR      79  67  67 E7        30.12F                  
HAMMOND*       MOSUNNY   79  63  57 E5        30.14F                  
HOUMA*         MOSUNNY   81  79  94 E8        30.11F                  
PORT FOURCHON* NOT AVBL                                               

**********************************************************************
  Mississippi
1200 PM CDT FRI OCT 20 2017

MSZ080>082-201800-
COASTAL MISSISSIPPI
  
CITY           SKY/WX    TMP DP  RH WIND       PRES   REMARKS
BAY ST LOUIS   PTSUNNY   79  68  69 E9        30.16S                  
BILOXI         CLOUDY    76  67  72 E10       30.16S                  
PASCAGOULA     PTSUNNY   79  65  62 E12       30.17S                  
GULFPORT       CLOUDY    77  67  71 E12       30.15F                  
About Us | Coastal Marine Forecast | Offshore Marine Forecast
Gulf Coast Tides | Hourly Weather Observations | Weather Radar
Sea Surface Temperatures | Solar/Lunar Data | Hurricane Advisories | Home
     
USA Logo Dr. Bill's Marine Weather
Last date changed: December 9, 2014 4:08 PM
www.gulfmarineweather.com/hourlyweatherobservations.shtml
Contact Us